FLI7200 LEAL-EKVG

Flight info

Callsign FLI7200
Flight time 3h 31m
Altitude 34000
Route VLC DCT GIROM DCT AGN DCT SECHE DCT UVELI/N0438F360 DCT CNA DCT TUPAR UY120 AKIKI UN867 VASUX DCT TNT UN57 POL DCT TLA DCT NALAN DCT ROBUR
Aircraft A320/M-SDE3FGHIRWY/LB1

Departure

Time 2026-04-29 10:39
Airport Alicante-Elche Miguel Hernández Airport (LEAL)

Arrival

Time 2026-04-29 14:10
Airport Vágar Airport (EKVG)
Time Latitude Longitude Altitude Speed Heading
2026-04-29 10:21 38.28531 -0.55277 90 ft 0 kts 10°
2026-04-29 10:31 38.28517 -0.55280 89 ft 4 kts 12°
2026-04-29 10:31 38.28491 -0.55288 90 ft 4 kts 20°
2026-04-29 10:32 38.28467 -0.55303 91 ft 4 kts 45°
2026-04-29 10:32 38.28458 -0.55325 93 ft 1 kts 100°
2026-04-29 10:32 38.28458 -0.55326 94 ft 0 kts 100°
2026-04-29 10:34 38.28458 -0.55325 94 ft 1 kts 100°
2026-04-29 10:34 38.28452 -0.55285 91 ft 7 kts 100°
2026-04-29 10:34 38.28442 -0.55208 88 ft 10 kts 99°
2026-04-29 10:34 38.28425 -0.55144 91 ft 5 kts 139°
2026-04-29 10:35 38.28391 -0.55156 87 ft 6 kts 221°
2026-04-29 10:35 38.28360 -0.55208 88 ft 8 kts 229°
2026-04-29 10:35 38.28307 -0.55186 85 ft 11 kts 118°
2026-04-29 10:35 38.28291 -0.55069 81 ft 15 kts 100°
2026-04-29 10:36 38.28271 -0.54926 76 ft 17 kts 100°
2026-04-29 10:36 38.28249 -0.54763 70 ft 20 kts 100°
2026-04-29 10:36 38.28223 -0.54580 61 ft 22 kts 100°
2026-04-29 10:36 38.28194 -0.54381 56 ft 24 kts 100°
2026-04-29 10:37 38.28166 -0.54181 52 ft 13 kts 100°
2026-04-29 10:37 38.28122 -0.54104 53 ft 11 kts 179°
2026-04-29 10:37 38.28049 -0.54119 52 ft 10 kts 190°
2026-04-29 10:37 38.27990 -0.54168 52 ft 12 kts 253°
2026-04-29 10:38 38.28005 -0.54298 57 ft 25 kts 280°
2026-04-29 10:38 38.28078 -0.54821 73 ft 93 kts 280°
2026-04-29 10:38 38.28223 -0.55862 107 ft 144 kts 280°
2026-04-29 10:38 38.28406 -0.57173 574 ft 149 kts 277°
2026-04-29 10:39 38.28598 -0.58481 1096 ft 156 kts 279°
2026-04-29 10:39 38.28826 -0.59909 1501 ft 173 kts 281°
2026-04-29 10:39 38.29089 -0.61461 1875 ft 187 kts 282°
2026-04-29 10:39 38.29381 -0.63178 2080 ft 210 kts 282°
2026-04-29 10:40 38.29697 -0.65049 2510 ft 220 kts 282°
2026-04-29 10:40 38.30016 -0.66964 3167 ft 222 kts 283°
2026-04-29 10:40 38.30327 -0.68870 3808 ft 223 kts 283°
2026-04-29 10:40 38.30643 -0.70819 4408 ft 226 kts 283°
2026-04-29 10:41 38.30964 -0.72815 5016 ft 228 kts 283°
2026-04-29 10:41 38.31283 -0.74806 5612 ft 231 kts 282°
2026-04-29 10:41 38.31619 -0.76790 6193 ft 234 kts 287°
2026-04-29 10:41 38.32332 -0.78636 6799 ft 234 kts 307°
2026-04-29 10:42 38.33513 -0.80069 7381 ft 237 kts 326°
2026-04-29 10:42 38.35063 -0.80883 7742 ft 253 kts 351°
2026-04-29 10:42 38.36909 -0.81025 7955 ft 277 kts 356°
2026-04-29 10:42 38.38921 -0.81110 8164 ft 301 kts 357°
2026-04-29 10:43 38.41092 -0.81192 8354 ft 324 kts 356°
2026-04-29 10:43 38.43399 -0.81276 8780 ft 337 kts 357°
2026-04-29 10:43 38.45764 -0.81359 9441 ft 342 kts 357°
2026-04-29 10:43 38.48155 -0.81443 10099 ft 346 kts 357°
2026-04-29 10:44 38.50577 -0.81530 10728 ft 350 kts 357°
2026-04-29 10:44 38.53022 -0.81585 11350 ft 354 kts
2026-04-29 10:44 38.55478 -0.81162 11974 ft 359 kts 13°
2026-04-29 10:44 38.57873 -0.80338 12604 ft 362 kts 14°
2026-04-29 10:45 38.60322 -0.79483 13228 ft 366 kts 14°
2026-04-29 10:45 38.62795 -0.78617 13828 ft 370 kts 14°
2026-04-29 10:45 38.65291 -0.77739 14368 ft 373 kts 14°
2026-04-29 10:45 38.67813 -0.76854 14909 ft 377 kts 14°
2026-04-29 10:46 38.70357 -0.75962 15419 ft 380 kts 14°
2026-04-29 10:46 38.72917 -0.75067 15973 ft 383 kts 14°
2026-04-29 10:46 38.75504 -0.74160 16506 ft 386 kts 14°
2026-04-29 10:46 38.78108 -0.73246 17037 ft 389 kts 13°
2026-04-29 10:47 38.80730 -0.72329 17556 ft 392 kts 13°
2026-04-29 10:47 38.83375 -0.71404 18104 ft 395 kts 13°
2026-04-29 10:47 38.86037 -0.70472 18584 ft 398 kts 13°
2026-04-29 10:47 38.88718 -0.69532 19042 ft 401 kts 13°
2026-04-29 10:48 38.91421 -0.68583 19471 ft 405 kts 14°
2026-04-29 10:48 38.94116 -0.67636 19916 ft 408 kts 14°
2026-04-29 10:48 38.96863 -0.66672 20366 ft 411 kts 14°
2026-04-29 10:48 38.99627 -0.65700 20819 ft 413 kts 14°
2026-04-29 10:49 39.02411 -0.64716 21264 ft 416 kts 14°
2026-04-29 10:49 39.05213 -0.63723 21710 ft 419 kts 14°
2026-04-29 10:49 39.08035 -0.62722 22152 ft 422 kts 14°
2026-04-29 10:49 39.10882 -0.61717 22579 ft 425 kts 14°
2026-04-29 10:50 39.13745 -0.60706 22997 ft 428 kts 14°
2026-04-29 10:50 39.16625 -0.59684 23385 ft 431 kts 14°
2026-04-29 10:50 39.19529 -0.58648 23741 ft 434 kts 14°
2026-04-29 10:50 39.22443 -0.57608 24081 ft 436 kts 14°
2026-04-29 10:51 39.25372 -0.56564 24416 ft 438 kts 14°
2026-04-29 10:51 39.28318 -0.55519 24737 ft 440 kts 14°
2026-04-29 10:51 39.31276 -0.54473 25064 ft 442 kts 14°
2026-04-29 10:51 39.34255 -0.53419 25376 ft 444 kts 14°
2026-04-29 10:52 39.37239 -0.52359 25692 ft 446 kts 15°
2026-04-29 10:52 39.40237 -0.51286 26040 ft 448 kts 15°
2026-04-29 10:52 39.43249 -0.50202 26371 ft 450 kts 15°
2026-04-29 10:52 39.46277 -0.49117 26697 ft 452 kts 15°
2026-04-29 10:53 39.49311 -0.48021 27008 ft 454 kts 15°
2026-04-29 10:53 39.52343 -0.46832 27307 ft 456 kts 17°
2026-04-29 10:53 39.55366 -0.45554 27613 ft 458 kts 18°
2026-04-29 10:53 39.58387 -0.44222 27892 ft 460 kts 19°
2026-04-29 10:54 39.61416 -0.42870 28160 ft 462 kts 19°
2026-04-29 10:54 39.64460 -0.41515 28419 ft 463 kts 18°
2026-04-29 10:54 39.66485 -0.40623 28599 ft 464 kts 18°
2026-04-29 10:54 39.69553 -0.39289 28852 ft 466 kts 18°
2026-04-29 10:55 39.72639 -0.37962 29089 ft 468 kts 18°
2026-04-29 10:55 39.76745 -0.36206 29412 ft 470 kts 18°
2026-04-29 10:55 39.79856 -0.34879 29646 ft 471 kts 18°
2026-04-29 10:55 39.81963 -0.33978 29802 ft 472 kts 18°
2026-04-29 10:56 39.85091 -0.32635 30012 ft 474 kts 18°
2026-04-29 10:56 39.88227 -0.31280 30206 ft 475 kts 18°
2026-04-29 10:56 39.91366 -0.29921 30473 ft 474 kts 18°
2026-04-29 10:56 39.94497 -0.28562 30739 ft 473 kts 18°
2026-04-29 10:57 39.97622 -0.27204 31011 ft 473 kts 18°
2026-04-29 10:57 40.00743 -0.25847 31282 ft 472 kts 18°
2026-04-29 10:57 40.03816 -0.24513 31543 ft 471 kts 19°
2026-04-29 10:57 40.06927 -0.23166 31788 ft 471 kts 19°
2026-04-29 10:58 40.10035 -0.21819 32021 ft 471 kts 19°
2026-04-29 10:58 40.13141 -0.20468 32278 ft 470 kts 19°
2026-04-29 10:58 40.16240 -0.19118 32530 ft 469 kts 19°
2026-04-29 10:58 40.19379 -0.17748 32779 ft 468 kts 19°
2026-04-29 10:59 40.22426 -0.16411 33025 ft 468 kts 19°
2026-04-29 10:59 40.25512 -0.15057 33278 ft 467 kts 19°
2026-04-29 10:59 40.28598 -0.13704 33512 ft 467 kts 19°
2026-04-29 10:59 40.31678 -0.12353 33752 ft 467 kts 19°
2026-04-29 11:00 40.34760 -0.11002 33901 ft 466 kts 19°
2026-04-29 11:00 40.40876 -0.08321 33933 ft 461 kts 19°
2026-04-29 11:01 40.46958 -0.05649 33941 ft 460 kts 19°
2026-04-29 11:01 40.53030 -0.02976 33934 ft 460 kts 19°
2026-04-29 11:02 40.59104 -0.00293 33933 ft 459 kts 19°
2026-04-29 11:02 40.65158 0.02385 33942 ft 459 kts 19°
2026-04-29 11:03 40.71204 0.05069 33943 ft 458 kts 19°
2026-04-29 11:03 40.77256 0.07750 33940 ft 458 kts 19°
2026-04-29 11:04 40.83302 0.10432 33938 ft 458 kts 19°
2026-04-29 11:04 40.89351 0.13132 33937 ft 458 kts 19°
2026-04-29 11:05 40.95396 0.15831 33941 ft 458 kts 19°
2026-04-29 11:05 41.01441 0.18532 33933 ft 459 kts 19°
2026-04-29 11:06 41.07487 0.21244 33936 ft 458 kts 19°
2026-04-29 11:06 41.13531 0.23963 33931 ft 458 kts 19°
2026-04-29 11:07 41.19545 0.26669 33934 ft 459 kts 20°
2026-04-29 11:07 41.25589 0.29400 33927 ft 459 kts 19°
2026-04-29 11:08 41.31634 0.32134 33934 ft 459 kts 19°
2026-04-29 11:08 41.37689 0.34868 33948 ft 460 kts 19°
2026-04-29 11:09 41.43758 0.37618 33932 ft 460 kts 20°
2026-04-29 11:09 41.49819 0.40379 33936 ft 460 kts 20°
2026-04-29 11:10 41.55890 0.43145 33955 ft 460 kts 20°
2026-04-29 11:10 41.61920 0.45893 33961 ft 460 kts 20°
2026-04-29 11:11 41.67997 0.48667 33964 ft 460 kts 20°
2026-04-29 11:11 41.74070 0.51448 33963 ft 460 kts 20°
2026-04-29 11:12 41.80129 0.54238 33963 ft 460 kts 20°
2026-04-29 11:12 41.86195 0.57032 33965 ft 461 kts 20°
2026-04-29 11:13 41.92265 0.59827 33962 ft 461 kts 20°
2026-04-29 11:13 41.98341 0.62627 33961 ft 461 kts 20°
2026-04-29 11:14 42.04419 0.65444 33965 ft 462 kts 20°
2026-04-29 11:14 42.10495 0.68276 33959 ft 462 kts 20°
2026-04-29 11:15 42.16569 0.71099 33963 ft 462 kts 20°
2026-04-29 11:15 42.22612 0.73906 33969 ft 462 kts 20°
2026-04-29 11:16 42.28737 0.76759 33959 ft 463 kts 20°
2026-04-29 11:16 42.34773 0.79578 33996 ft 461 kts 20°
2026-04-29 11:17 42.40841 0.82415 34007 ft 461 kts 20°
2026-04-29 11:17 42.46910 0.85270 33972 ft 462 kts 20°
2026-04-29 11:18 42.52993 0.88135 33965 ft 463 kts 20°
2026-04-29 11:18 42.59084 0.91000 33969 ft 463 kts 20°
2026-04-29 11:19 42.65173 0.93876 33954 ft 464 kts 20°
2026-04-29 11:19 42.71272 0.96774 33936 ft 464 kts 20°
2026-04-29 11:20 42.77485 0.99071 33932 ft 464 kts
2026-04-29 11:20 42.83908 0.99010 33921 ft 462 kts 354°
2026-04-29 11:21 42.90326 0.98294 33898 ft 463 kts 354°
2026-04-29 11:21 42.96752 0.97594 33902 ft 463 kts 354°
2026-04-29 11:22 43.03136 0.96896 33899 ft 464 kts 354°
2026-04-29 11:22 43.09578 0.96183 33897 ft 464 kts 354°
2026-04-29 11:23 43.16023 0.95467 33886 ft 464 kts 354°
2026-04-29 11:23 43.22469 0.94754 33890 ft 465 kts 354°
2026-04-29 11:24 43.28918 0.94038 33890 ft 465 kts 354°
2026-04-29 11:24 43.35364 0.93320 33899 ft 465 kts 354°
2026-04-29 11:25 43.41809 0.92588 33900 ft 465 kts 354°
2026-04-29 11:25 43.48271 0.91866 33902 ft 465 kts 354°
2026-04-29 11:26 43.57916 0.90797 33899 ft 465 kts 353°
2026-04-29 11:26 43.64365 0.90060 33912 ft 465 kts 353°
2026-04-29 11:27 43.70816 0.89320 33910 ft 465 kts 353°
2026-04-29 11:27 43.77262 0.88591 33906 ft 465 kts 353°
2026-04-29 11:28 43.83710 0.87875 33909 ft 465 kts 353°
2026-04-29 11:28 43.90025 0.86310 33906 ft 459 kts 338°
2026-04-29 11:29 43.95842 0.82760 33902 ft 455 kts 332°
2026-04-29 11:29 44.01594 0.79042 33903 ft 456 kts 332°
2026-04-29 11:30 44.07342 0.75334 33921 ft 456 kts 331°
2026-04-29 11:30 44.13105 0.71608 33905 ft 457 kts 331°
2026-04-29 11:31 44.18868 0.67860 33905 ft 457 kts 331°
2026-04-29 11:31 44.24637 0.64102 33907 ft 458 kts 331°
2026-04-29 11:32 44.30415 0.60331 33900 ft 458 kts 331°
2026-04-29 11:32 44.36186 0.56560 33902 ft 458 kts 331°
2026-04-29 11:33 44.41959 0.52778 33905 ft 458 kts 331°
2026-04-29 11:33 44.47694 0.49012 33912 ft 458 kts 330°
2026-04-29 11:34 44.53449 0.45188 33917 ft 457 kts 330°
2026-04-29 11:34 44.58267 0.41978 33915 ft 457 kts 330°
2026-04-29 11:35 44.63983 0.38171 33932 ft 457 kts 330°
2026-04-29 11:35 44.69741 0.34329 33925 ft 458 kts 330°
2026-04-29 11:36 44.75492 0.30489 33905 ft 458 kts 330°
2026-04-29 11:36 44.81247 0.26633 33907 ft 458 kts 330°
2026-04-29 11:37 44.87003 0.22768 33907 ft 458 kts 330°
2026-04-29 11:37 44.92727 0.18904 33903 ft 458 kts 330°
2026-04-29 11:38 44.98477 0.15025 33907 ft 458 kts 330°
2026-04-29 11:38 45.04228 0.11145 33915 ft 458 kts 330°
2026-04-29 11:39 45.09977 0.07264 33915 ft 457 kts 330°
2026-04-29 11:39 45.15719 0.03366 33917 ft 457 kts 330°
2026-04-29 11:40 45.21453 -0.00547 33928 ft 457 kts 329°
2026-04-29 11:40 45.27184 -0.04465 33913 ft 457 kts 329°
2026-04-29 11:41 45.32925 -0.08387 33915 ft 458 kts 330°
2026-04-29 11:41 45.38667 -0.12317 33919 ft 458 kts 329°
2026-04-29 11:42 45.44414 -0.16266 33915 ft 458 kts 329°
2026-04-29 11:42 45.50152 -0.20222 33911 ft 458 kts 329°
2026-04-29 11:43 45.55885 -0.24184 33904 ft 458 kts 329°
2026-04-29 11:43 45.61614 -0.28145 33916 ft 457 kts 329°
2026-04-29 11:44 45.67439 -0.31832 33914 ft 461 kts 338°
2026-04-29 11:44 45.73573 -0.34567 33929 ft 461 kts 338°
2026-04-29 11:45 45.79706 -0.37335 33932 ft 461 kts 338°
2026-04-29 11:45 45.85779 -0.40097 33930 ft 461 kts 338°
2026-04-29 11:46 45.91892 -0.42875 33924 ft 461 kts 338°
2026-04-29 11:46 45.98002 -0.45653 33934 ft 460 kts 338°
2026-04-29 11:47 46.04111 -0.48433 33934 ft 460 kts 338°
2026-04-29 11:47 46.10208 -0.51216 33933 ft 459 kts 338°
2026-04-29 11:48 46.16306 -0.54011 33930 ft 459 kts 338°
2026-04-29 11:48 46.22392 -0.56803 33943 ft 458 kts 337°
2026-04-29 11:49 46.28467 -0.59599 33942 ft 458 kts 337°
2026-04-29 11:49 46.34528 -0.62406 33939 ft 457 kts 337°
2026-04-29 11:50 46.40589 -0.65211 33948 ft 457 kts 337°
2026-04-29 11:50 46.46375 -0.68784 33951 ft 449 kts 327°
2026-04-29 11:51 46.51962 -0.72869 33949 ft 449 kts 327°
2026-04-29 11:51 46.57541 -0.76958 33960 ft 449 kts 328°
2026-04-29 11:52 46.63115 -0.81041 33985 ft 448 kts 328°
2026-04-29 11:52 46.68690 -0.85137 33966 ft 449 kts 328°
2026-04-29 11:53 46.74271 -0.89251 33959 ft 449 kts 328°
2026-04-29 11:53 46.79854 -0.93373 33956 ft 450 kts 328°
2026-04-29 11:54 46.85439 -0.97508 33958 ft 450 kts 328°
2026-04-29 11:54 46.91028 -1.01640 33963 ft 451 kts 330°
2026-04-29 11:55 46.97097 -1.04297 33963 ft 462 kts 349°
2026-04-29 11:55 47.03472 -1.05157 33975 ft 462 kts 351°
2026-04-29 11:56 47.09879 -1.06017 33980 ft 462 kts 351°
2026-04-29 11:56 47.16284 -1.06903 33980 ft 462 kts 351°
2026-04-29 11:57 47.22690 -1.07788 33993 ft 461 kts 351°
2026-04-29 11:57 47.29068 -1.08652 33993 ft 460 kts 351°
2026-04-29 11:58 47.35435 -1.09522 33992 ft 459 kts 351°
2026-04-29 11:58 47.41799 -1.10402 33995 ft 459 kts 351°
2026-04-29 11:59 47.48153 -1.11277 33995 ft 458 kts 351°
2026-04-29 11:59 47.54504 -1.12158 33992 ft 458 kts 351°
2026-04-29 12:00 47.60812 -1.13037 33999 ft 458 kts 351°
2026-04-29 12:00 47.67145 -1.13917 33998 ft 457 kts 351°
2026-04-29 12:01 47.73510 -1.14809 33999 ft 456 kts 351°
2026-04-29 12:01 47.79830 -1.15686 34008 ft 456 kts 351°
2026-04-29 12:02 47.86138 -1.16563 34009 ft 455 kts 351°
2026-04-29 12:02 47.92391 -1.17443 34010 ft 454 kts 351°
2026-04-29 12:03 47.98675 -1.18328 34016 ft 453 kts 351°
2026-04-29 12:03 48.04967 -1.19208 34012 ft 453 kts 351°
2026-04-29 12:04 48.11229 -1.20091 34008 ft 452 kts 351°
2026-04-29 12:04 48.17485 -1.20985 34013 ft 451 kts 351°
2026-04-29 12:05 48.23739 -1.21867 34007 ft 451 kts 351°
2026-04-29 12:05 48.30005 -1.22756 34002 ft 452 kts 351°
2026-04-29 12:06 48.36270 -1.23661 34007 ft 452 kts 351°
2026-04-29 12:06 48.42502 -1.24552 34012 ft 452 kts 351°
2026-04-29 12:07 48.48775 -1.25448 34014 ft 453 kts 351°
2026-04-29 12:07 48.55047 -1.26346 34014 ft 453 kts 351°
2026-04-29 12:08 48.61317 -1.27257 34024 ft 453 kts 351°
2026-04-29 12:08 48.67585 -1.28175 34032 ft 453 kts 351°
2026-04-29 12:09 48.73863 -1.29080 34039 ft 453 kts 351°
2026-04-29 12:09 48.80132 -1.29987 34041 ft 453 kts 351°
2026-04-29 12:10 48.86404 -1.30902 34052 ft 453 kts 351°
2026-04-29 12:10 48.92679 -1.31816 34075 ft 454 kts 351°
2026-04-29 12:11 48.98970 -1.32725 34060 ft 454 kts 351°
2026-04-29 12:11 49.05271 -1.33658 34046 ft 455 kts 351°
2026-04-29 12:12 49.11577 -1.34586 34048 ft 455 kts 351°
2026-04-29 12:12 49.17890 -1.35509 34056 ft 456 kts 351°
2026-04-29 12:13 49.24200 -1.36457 34056 ft 456 kts 351°
2026-04-29 12:13 49.30521 -1.37396 34060 ft 456 kts 351°
2026-04-29 12:14 49.35782 -1.38170 34084 ft 457 kts 351°
2026-04-29 12:14 49.42124 -1.39105 34103 ft 458 kts 351°
2026-04-29 12:15 49.49505 -1.40209 34108 ft 458 kts 351°
2026-04-29 12:15 49.54827 -1.41014 34111 ft 459 kts 351°
2026-04-29 12:16 49.61216 -1.41492 34112 ft 463 kts
2026-04-29 12:16 49.67653 -1.40913 34117 ft 463 kts
2026-04-29 12:17 49.74052 -1.40350 34127 ft 464 kts
2026-04-29 12:17 49.80517 -1.39773 34118 ft 465 kts
2026-04-29 12:18 49.86991 -1.39206 34113 ft 466 kts
2026-04-29 12:18 49.93478 -1.38634 34118 ft 466 kts
2026-04-29 12:19 49.99959 -1.38011 34122 ft 467 kts
2026-04-29 12:19 50.06349 -1.36456 34106 ft 467 kts
2026-04-29 12:20 50.12759 -1.34860 34136 ft 466 kts
2026-04-29 12:20 50.19162 -1.33278 34144 ft 465 kts
2026-04-29 12:21 50.25562 -1.31683 34151 ft 465 kts
2026-04-29 12:21 50.28759 -1.30881 34154 ft 465 kts
2026-04-29 12:22 50.34150 -1.29291 34162 ft 465 kts
2026-04-29 12:22 50.40552 -1.27755 34165 ft 465 kts
2026-04-29 12:23 50.46955 -1.26305 34165 ft 465 kts
2026-04-29 12:23 50.53391 -1.25974 34167 ft 462 kts 352°
2026-04-29 12:24 50.59797 -1.26957 34171 ft 463 kts 352°
2026-04-29 12:24 50.66203 -1.27944 34176 ft 463 kts 353°
2026-04-29 12:25 50.72612 -1.28928 34186 ft 463 kts 353°
2026-04-29 12:26 50.82224 -1.30424 34198 ft 463 kts 353°
2026-04-29 12:26 50.88645 -1.31428 34199 ft 463 kts 355°
2026-04-29 12:27 50.95062 -1.32428 34192 ft 463 kts 355°
2026-04-29 12:27 51.01478 -1.33424 34196 ft 463 kts 355°
2026-04-29 12:28 51.07898 -1.34442 34201 ft 464 kts 354°
2026-04-29 12:28 51.14287 -1.35471 34204 ft 464 kts 354°
2026-04-29 12:29 51.20715 -1.36493 34202 ft 464 kts 355°
2026-04-29 12:29 51.27143 -1.37496 34207 ft 464 kts 355°
2026-04-29 12:30 51.33579 -1.38503 34226 ft 464 kts 357°
2026-04-29 12:30 51.39993 -1.39530 34261 ft 462 kts 357°
2026-04-29 12:31 51.46390 -1.40568 34281 ft 461 kts 357°
2026-04-29 12:31 51.52761 -1.41592 34285 ft 460 kts 357°
2026-04-29 12:32 51.59139 -1.42615 34309 ft 462 kts 359°
2026-04-29 12:32 51.62344 -1.43134 34471 ft 464 kts 359°
2026-04-29 12:32 51.65556 -1.43655 34682 ft 464 kts 359°
2026-04-29 12:32 51.68727 -1.44170 34904 ft 464 kts 359°
2026-04-29 12:33 51.71938 -1.44690 35122 ft 463 kts 358°
2026-04-29 12:33 51.75145 -1.45208 35342 ft 463 kts 358°
2026-04-29 12:33 51.78348 -1.45725 35572 ft 463 kts 359°
2026-04-29 12:33 51.81552 -1.46243 35777 ft 462 kts 360°
2026-04-29 12:34 51.84749 -1.46762 36006 ft 461 kts 360°
2026-04-29 12:34 51.87938 -1.47281 36212 ft 461 kts 360°
2026-04-29 12:34 51.91135 -1.47800 36292 ft 461 kts 360°
2026-04-29 12:35 51.97520 -1.48850 36301 ft 460 kts 359°
2026-04-29 12:35 52.03891 -1.49909 36361 ft 460 kts
2026-04-29 12:36 52.10230 -1.50941 36395 ft 459 kts
2026-04-29 12:36 52.16591 -1.51992 36406 ft 459 kts 360°
2026-04-29 12:37 52.22950 -1.53060 36404 ft 459 kts
2026-04-29 12:37 52.29304 -1.54115 36372 ft 459 kts
2026-04-29 12:38 52.35656 -1.55166 36323 ft 458 kts
2026-04-29 12:38 52.41995 -1.56230 36330 ft 458 kts
2026-04-29 12:39 52.48336 -1.57297 36333 ft 458 kts
2026-04-29 12:39 52.54671 -1.58353 36325 ft 457 kts
2026-04-29 12:39 52.57832 -1.58877 36218 ft 456 kts
2026-04-29 12:40 52.60990 -1.59405 36218 ft 456 kts
2026-04-29 12:40 52.67301 -1.60474 36228 ft 455 kts
2026-04-29 12:41 52.73564 -1.61537 36380 ft 455 kts
2026-04-29 12:41 52.79857 -1.62606 36381 ft 454 kts
2026-04-29 12:42 52.86144 -1.63690 36389 ft 453 kts
2026-04-29 12:42 52.92414 -1.64768 36392 ft 452 kts
2026-04-29 12:43 52.98674 -1.65844 36393 ft 452 kts
2026-04-29 12:43 53.04918 -1.67098 36393 ft 456 kts 353°
2026-04-29 12:44 53.10959 -1.70427 36393 ft 462 kts 345°
2026-04-29 12:44 53.16985 -1.74184 36398 ft 462 kts 345°
2026-04-29 12:45 53.23010 -1.77923 36392 ft 462 kts 345°
2026-04-29 12:45 53.29037 -1.81670 36398 ft 461 kts 345°
2026-04-29 12:46 53.35050 -1.85430 36401 ft 460 kts 345°
2026-04-29 12:46 53.41045 -1.89196 36397 ft 460 kts 345°
2026-04-29 12:47 53.47039 -1.92969 36406 ft 460 kts 345°
2026-04-29 12:47 53.53029 -1.96743 36408 ft 460 kts 345°
2026-04-29 12:48 53.59025 -2.00545 36409 ft 460 kts 345°
2026-04-29 12:48 53.65009 -2.04362 36408 ft 460 kts 345°
2026-04-29 12:49 53.71003 -2.08182 36411 ft 460 kts 344°
2026-04-29 12:49 53.76984 -2.12032 36408 ft 460 kts 343°
2026-04-29 12:50 53.82883 -2.16026 36422 ft 459 kts 342°
2026-04-29 12:50 53.88803 -2.20131 36427 ft 459 kts 342°
2026-04-29 12:51 53.94719 -2.24223 36431 ft 459 kts 343°
2026-04-29 12:51 54.00628 -2.28290 36422 ft 458 kts 342°
2026-04-29 12:52 54.06536 -2.32351 36429 ft 457 kts 343°
2026-04-29 12:52 54.12438 -2.36416 36438 ft 457 kts 342°
2026-04-29 12:53 54.18328 -2.40513 36434 ft 457 kts 342°
2026-04-29 12:53 54.24211 -2.44620 36436 ft 456 kts 342°
2026-04-29 12:54 54.30083 -2.48720 36438 ft 455 kts 342°
2026-04-29 12:54 54.35953 -2.52829 36446 ft 454 kts 342°
2026-04-29 12:55 54.41757 -2.56916 36442 ft 454 kts 342°
2026-04-29 12:55 54.47600 -2.61033 36437 ft 454 kts 342°
2026-04-29 12:56 54.53440 -2.65160 36455 ft 453 kts 342°
2026-04-29 12:56 54.59256 -2.69278 36451 ft 452 kts 341°
2026-04-29 12:57 54.64095 -2.72713 36464 ft 451 kts 341°
2026-04-29 12:57 54.70846 -2.77539 36456 ft 451 kts 341°
2026-04-29 12:58 54.75672 -2.80992 36458 ft 450 kts 341°
2026-04-29 12:58 54.81452 -2.85141 36463 ft 449 kts 341°
2026-04-29 12:59 54.87228 -2.89296 36466 ft 449 kts 341°
2026-04-29 12:59 54.92988 -2.93471 36470 ft 448 kts 341°
2026-04-29 13:00 54.98750 -2.97654 36455 ft 448 kts 340°
2026-04-29 13:00 55.04514 -3.01818 36471 ft 448 kts 340°
2026-04-29 13:01 55.10236 -3.05983 36478 ft 448 kts 340°
2026-04-29 13:01 55.15978 -3.10193 36480 ft 448 kts 340°
2026-04-29 13:02 55.21717 -3.14413 36479 ft 447 kts 340°
2026-04-29 13:02 55.27469 -3.18641 36474 ft 447 kts 340°
2026-04-29 13:03 55.33202 -3.22859 36479 ft 447 kts 340°
2026-04-29 13:03 55.38925 -3.27092 36480 ft 446 kts 340°
2026-04-29 13:04 55.44642 -3.31347 36480 ft 446 kts 340°
2026-04-29 13:04 55.50396 -3.35411 36465 ft 443 kts 347°
2026-04-29 13:05 55.56379 -3.37921 36463 ft 442 kts 350°
2026-04-29 13:05 55.62369 -3.40393 36464 ft 442 kts 349°
2026-04-29 13:06 55.68349 -3.42878 36471 ft 442 kts 349°
2026-04-29 13:06 55.74333 -3.45370 36465 ft 442 kts 349°
2026-04-29 13:07 55.80316 -3.47861 36475 ft 442 kts 349°
2026-04-29 13:07 55.86269 -3.50348 36486 ft 442 kts 349°
2026-04-29 13:08 55.92256 -3.52854 36495 ft 442 kts 349°
2026-04-29 13:08 55.98248 -3.55375 36492 ft 442 kts 349°
2026-04-29 13:09 56.04224 -3.57893 36491 ft 441 kts 349°
2026-04-29 13:09 56.10202 -3.60413 36493 ft 441 kts 349°
2026-04-29 13:10 56.16192 -3.62959 36493 ft 442 kts 349°
2026-04-29 13:10 56.22173 -3.65508 36495 ft 442 kts 349°
2026-04-29 13:11 56.28161 -3.68065 36484 ft 441 kts 348°
2026-04-29 13:11 56.34133 -3.70625 36492 ft 441 kts 348°
2026-04-29 13:12 56.40070 -3.73188 36500 ft 441 kts 348°
2026-04-29 13:12 56.46040 -3.75765 36502 ft 441 kts 348°
2026-04-29 13:13 56.52019 -3.78342 36500 ft 441 kts 348°
2026-04-29 13:13 56.57987 -3.80933 36498 ft 441 kts 348°
2026-04-29 13:14 56.63950 -3.83529 36500 ft 441 kts 348°
2026-04-29 13:14 56.69912 -3.86133 36493 ft 440 kts 348°
2026-04-29 13:15 56.75873 -3.88753 36492 ft 440 kts 348°
2026-04-29 13:15 56.81827 -3.91379 36480 ft 440 kts 347°
2026-04-29 13:16 56.87739 -3.93977 36479 ft 440 kts 347°
2026-04-29 13:16 56.93691 -3.96602 36468 ft 440 kts 347°
2026-04-29 13:17 56.99636 -3.99246 36457 ft 440 kts 348°
2026-04-29 13:17 57.05586 -4.01913 36450 ft 439 kts 346°
2026-04-29 13:18 57.11529 -4.04577 36446 ft 439 kts 347°
2026-04-29 13:18 57.17463 -4.07233 36446 ft 439 kts 347°
2026-04-29 13:19 57.23393 -4.09896 36446 ft 439 kts 347°
2026-04-29 13:19 57.29317 -4.12571 36445 ft 438 kts 347°
2026-04-29 13:20 57.35239 -4.15255 36442 ft 438 kts 346°
2026-04-29 13:20 57.41152 -4.17944 36446 ft 437 kts 346°
2026-04-29 13:21 57.47051 -4.20636 36441 ft 437 kts 346°
2026-04-29 13:21 57.52956 -4.23336 36427 ft 437 kts 346°
2026-04-29 13:22 57.58833 -4.26037 36424 ft 438 kts 346°
2026-04-29 13:22 57.64751 -4.28761 36432 ft 437 kts 346°
2026-04-29 13:23 57.70666 -4.31481 36443 ft 438 kts 345°
2026-04-29 13:23 57.76577 -4.34226 36445 ft 438 kts 345°
2026-04-29 13:24 57.82491 -4.36987 36452 ft 438 kts 345°
2026-04-29 13:24 57.88404 -4.39755 36449 ft 438 kts 345°
2026-04-29 13:25 57.94309 -4.42513 36448 ft 437 kts 345°
2026-04-29 13:25 58.03153 -4.46666 36444 ft 436 kts 345°
2026-04-29 13:26 58.09046 -4.49465 36447 ft 436 kts 345°
2026-04-29 13:26 58.14940 -4.52267 36453 ft 436 kts 345°
2026-04-29 13:27 58.20822 -4.55057 36457 ft 435 kts 345°
2026-04-29 13:27 58.26695 -4.57852 36455 ft 435 kts 345°
2026-04-29 13:28 58.32561 -4.60652 36457 ft 434 kts 345°
2026-04-29 13:28 58.38426 -4.63472 36454 ft 434 kts 344°
2026-04-29 13:29 58.44246 -4.66291 36460 ft 434 kts 344°
2026-04-29 13:29 58.50091 -4.69121 36457 ft 433 kts 344°
2026-04-29 13:30 58.55941 -4.71956 36460 ft 433 kts 344°
2026-04-29 13:30 58.61792 -4.74803 36462 ft 433 kts 344°
2026-04-29 13:31 58.67643 -4.77669 36466 ft 433 kts 344°
2026-04-29 13:31 58.73452 -4.80527 36465 ft 433 kts 344°
2026-04-29 13:32 58.79296 -4.83419 36468 ft 433 kts 344°
2026-04-29 13:32 58.85143 -4.86313 36470 ft 434 kts 344°
2026-04-29 13:33 58.90987 -4.89211 36468 ft 434 kts 344°
2026-04-29 13:33 58.96828 -4.92109 36485 ft 433 kts 343°
2026-04-29 13:34 59.02670 -4.95009 36479 ft 433 kts 343°
2026-04-29 13:34 59.08496 -4.97930 36474 ft 432 kts 343°
2026-04-29 13:35 59.14321 -5.00877 36475 ft 432 kts 343°
2026-04-29 13:35 59.20146 -5.03817 36475 ft 432 kts 343°
2026-04-29 13:36 59.25973 -5.06762 36480 ft 432 kts 343°
2026-04-29 13:36 59.31795 -5.09719 36476 ft 432 kts 343°
2026-04-29 13:37 59.37614 -5.12674 36469 ft 432 kts 343°
2026-04-29 13:37 59.43426 -5.15650 36465 ft 431 kts 343°
2026-04-29 13:38 59.49232 -5.18644 36460 ft 431 kts 343°
2026-04-29 13:38 59.55044 -5.21635 36457 ft 432 kts 342°
2026-04-29 13:39 59.60822 -5.24623 36444 ft 432 kts 342°
2026-04-29 13:39 59.66657 -5.27651 36442 ft 433 kts 342°
2026-04-29 13:40 59.71509 -5.30179 36444 ft 433 kts 342°
2026-04-29 13:40 59.77342 -5.33226 36446 ft 434 kts 342°
2026-04-29 13:41 59.83180 -5.36291 36457 ft 434 kts 342°
2026-04-29 13:41 59.89034 -5.39367 36456 ft 434 kts 342°
2026-04-29 13:42 59.94887 -5.42457 36415 ft 435 kts 342°
2026-04-29 13:42 59.97816 -5.44008 36061 ft 435 kts 342°
2026-04-29 13:42 60.00731 -5.45550 35658 ft 431 kts 342°
2026-04-29 13:43 60.03620 -5.47085 35244 ft 428 kts 342°
2026-04-29 13:43 60.06452 -5.48597 34845 ft 425 kts 342°
2026-04-29 13:43 60.09332 -5.50142 34427 ft 422 kts 342°
2026-04-29 13:43 60.12125 -5.51640 33955 ft 419 kts 342°
2026-04-29 13:44 60.14934 -5.53143 33495 ft 417 kts 342°
2026-04-29 13:44 60.17728 -5.54633 33037 ft 415 kts 342°
2026-04-29 13:44 60.20509 -5.56120 32588 ft 412 kts 342°
2026-04-29 13:44 60.23283 -5.57610 32145 ft 410 kts 342°
2026-04-29 13:45 60.26034 -5.59098 31711 ft 409 kts 342°
2026-04-29 13:45 60.28771 -5.60581 31283 ft 407 kts 342°
2026-04-29 13:45 60.31501 -5.62060 30862 ft 405 kts 342°
2026-04-29 13:45 60.34216 -5.63529 30451 ft 403 kts 342°
2026-04-29 13:46 60.36925 -5.64998 29962 ft 402 kts 341°
2026-04-29 13:46 60.39616 -5.66463 29479 ft 399 kts 341°
2026-04-29 13:46 60.42297 -5.67922 29001 ft 397 kts 341°
2026-04-29 13:46 60.44957 -5.69378 28539 ft 394 kts 341°
2026-04-29 13:47 60.47608 -5.70831 28082 ft 392 kts 341°
2026-04-29 13:47 60.50232 -5.72270 27632 ft 389 kts 341°
2026-04-29 13:47 60.52808 -5.73686 27196 ft 387 kts 341°
2026-04-29 13:47 60.55430 -5.75125 26757 ft 384 kts 341°
2026-04-29 13:48 60.57970 -5.76523 26334 ft 382 kts 341°
2026-04-29 13:48 60.60528 -5.77924 25913 ft 380 kts 341°
2026-04-29 13:48 60.63070 -5.79323 25515 ft 377 kts 341°
2026-04-29 13:48 60.65598 -5.80722 25107 ft 375 kts 341°
2026-04-29 13:49 60.68112 -5.82113 24703 ft 373 kts 341°
2026-04-29 13:49 60.70613 -5.83500 24304 ft 371 kts 340°
2026-04-29 13:49 60.73096 -5.84884 23898 ft 369 kts 340°
2026-04-29 13:49 60.75567 -5.86264 23418 ft 367 kts 340°
2026-04-29 13:50 60.78032 -5.87637 22960 ft 366 kts 340°
2026-04-29 13:50 60.80485 -5.89000 22506 ft 364 kts 340°
2026-04-29 13:50 60.82930 -5.90363 22060 ft 363 kts 340°
2026-04-29 13:50 60.85358 -5.91726 21620 ft 362 kts 340°
2026-04-29 13:51 60.87780 -5.93090 21182 ft 360 kts 340°
2026-04-29 13:51 60.90200 -5.94454 20754 ft 359 kts 340°
2026-04-29 13:51 60.92608 -5.95816 20352 ft 358 kts 339°
2026-04-29 13:51 60.95009 -5.97175 19936 ft 357 kts 339°
2026-04-29 13:52 60.97371 -5.98518 19526 ft 356 kts 339°
2026-04-29 13:52 60.99759 -5.99875 19123 ft 355 kts 339°
2026-04-29 13:52 61.02135 -6.01270 18724 ft 354 kts 338°
2026-04-29 13:52 61.04492 -6.02736 18275 ft 353 kts 337°
2026-04-29 13:53 61.06834 -6.04236 17819 ft 352 kts 337°
2026-04-29 13:53 61.09171 -6.05743 17372 ft 352 kts 337°
2026-04-29 13:53 61.11505 -6.07249 16923 ft 351 kts 337°
2026-04-29 13:53 61.13842 -6.08757 16467 ft 352 kts 337°
2026-04-29 13:54 61.16184 -6.10261 16016 ft 352 kts 337°
2026-04-29 13:54 61.18532 -6.11759 15572 ft 353 kts 337°
2026-04-29 13:54 61.20879 -6.13253 15146 ft 353 kts 336°
2026-04-29 13:54 61.23228 -6.14759 14713 ft 353 kts 336°
2026-04-29 13:55 61.25569 -6.16269 14275 ft 352 kts 336°
2026-04-29 13:55 61.27912 -6.17777 13820 ft 352 kts 336°
2026-04-29 13:55 61.30252 -6.19281 13347 ft 351 kts 337°
2026-04-29 13:55 61.32581 -6.20788 12875 ft 350 kts 337°
2026-04-29 13:56 61.34903 -6.22291 12416 ft 348 kts 337°
2026-04-29 13:56 61.37214 -6.23785 11969 ft 347 kts 338°
2026-04-29 13:56 61.39505 -6.25262 11510 ft 340 kts 338°
2026-04-29 13:56 61.41700 -6.26670 11075 ft 328 kts 338°
2026-04-29 13:57 61.43885 -6.28084 10640 ft 328 kts 338°
2026-04-29 13:57 61.46066 -6.29508 10207 ft 328 kts 338°
2026-04-29 13:57 61.48246 -6.30928 9728 ft 327 kts 338°
2026-04-29 13:57 61.50426 -6.32353 9262 ft 326 kts 338°
2026-04-29 13:58 61.52587 -6.33777 8804 ft 325 kts 338°
2026-04-29 13:58 61.54713 -6.35167 8346 ft 323 kts 338°
2026-04-29 13:58 61.56862 -6.36568 7904 ft 322 kts 338°
2026-04-29 13:58 61.58999 -6.37969 7465 ft 320 kts 338°
2026-04-29 13:59 61.61119 -6.39366 7031 ft 318 kts 338°
2026-04-29 13:59 61.63224 -6.40759 6581 ft 316 kts 338°
2026-04-29 13:59 61.65316 -6.42140 6126 ft 314 kts 338°
2026-04-29 13:59 61.67393 -6.43503 5675 ft 311 kts 338°
2026-04-29 14:00 61.69442 -6.44848 5274 ft 307 kts 338°
2026-04-29 14:00 61.71464 -6.46182 4865 ft 303 kts 338°
2026-04-29 14:00 61.73459 -6.47503 4451 ft 298 kts 338°
2026-04-29 14:00 61.75425 -6.48806 4083 ft 293 kts 338°
2026-04-29 14:01 61.77296 -6.50048 4030 ft 276 kts 338°
2026-04-29 14:01 61.79072 -6.51227 4017 ft 258 kts 338°
2026-04-29 14:01 61.80757 -6.52344 4019 ft 252 kts 338°
2026-04-29 14:01 61.82424 -6.53456 4018 ft 251 kts 337°
2026-04-29 14:02 61.84086 -6.54578 4018 ft 251 kts 337°
2026-04-29 14:02 61.85750 -6.55708 4020 ft 251 kts 336°
2026-04-29 14:02 61.87317 -6.57224 4019 ft 246 kts 323°
2026-04-29 14:02 61.88660 -6.59398 4021 ft 241 kts 311°
2026-04-29 14:03 61.89738 -6.62056 4018 ft 236 kts 298°
2026-04-29 14:03 61.90568 -6.65034 4016 ft 234 kts 293°
2026-04-29 14:03 61.91335 -6.68071 4015 ft 234 kts 292°
2026-04-29 14:03 61.92106 -6.71112 4014 ft 233 kts 293°
2026-04-29 14:04 61.92855 -6.74045 4015 ft 220 kts 292°
2026-04-29 14:04 61.93580 -6.76894 4015 ft 218 kts 292°
2026-04-29 14:04 61.94303 -6.79743 4014 ft 218 kts 292°
2026-04-29 14:04 61.95016 -6.82551 4014 ft 218 kts 292°
2026-04-29 14:05 61.95736 -6.85390 4016 ft 218 kts 292°
2026-04-29 14:05 61.96454 -6.88224 4013 ft 218 kts 292°
2026-04-29 14:05 61.97157 -6.90996 4013 ft 206 kts 292°
2026-04-29 14:05 61.97810 -6.93571 4023 ft 189 kts 292°
2026-04-29 14:06 61.98418 -6.95983 3929 ft 183 kts 291°
2026-04-29 14:06 61.99014 -6.98353 3690 ft 181 kts 292°
2026-04-29 14:06 61.99608 -7.00715 3421 ft 182 kts 292°
2026-04-29 14:06 62.00205 -7.03088 3130 ft 180 kts 292°
2026-04-29 14:07 62.00783 -7.05387 2849 ft 172 kts 291°
2026-04-29 14:07 62.01338 -7.07593 2579 ft 166 kts 291°
2026-04-29 14:07 62.01872 -7.09723 2310 ft 161 kts 290°
2026-04-29 14:07 62.02392 -7.11799 2059 ft 156 kts 290°
2026-04-29 14:08 62.02884 -7.13761 1794 ft 148 kts 290°
2026-04-29 14:08 62.03351 -7.15623 1581 ft 138 kts 289°
2026-04-29 14:08 62.03789 -7.17387 1342 ft 135 kts 288°
2026-04-29 14:08 62.04237 -7.19183 1144 ft 138 kts 291°
2026-04-29 14:09 62.04679 -7.20985 882 ft 137 kts 290°
2026-04-29 14:09 62.05118 -7.22811 708 ft 140 kts 290°
2026-04-29 14:09 62.05593 -7.24635 467 ft 141 kts 289°
2026-04-29 14:09 62.06053 -7.26478 264 ft 138 kts 290°
2026-04-29 14:10 62.06423 -7.27984 282 ft 78 kts 298°
2026-04-29 14:10 62.06569 -7.28568 279 ft 33 kts 297°
2026-04-29 14:10 62.06670 -7.28973 271 ft 22 kts 298°
2026-04-29 14:10 62.06705 -7.29180 269 ft 7 kts 272°
2026-04-29 14:11 62.06729 -7.29189 269 ft 6 kts 65°
2026-04-29 14:11 62.06712 -7.29118 269 ft 6 kts 123°
2026-04-29 14:11 62.06678 -7.28998 271 ft 13 kts 120°
2026-04-29 14:11 62.06623 -7.28784 274 ft 20 kts 118°
2026-04-29 14:12 62.06553 -7.28502 281 ft 22 kts 118°
2026-04-29 14:12 62.06486 -7.28234 280 ft 10 kts 118°
2026-04-29 14:12 62.06501 -7.28144 280 ft 6 kts 33°
2026-04-29 14:12 62.06568 -7.28096 278 ft 13 kts 11°
2026-04-29 14:13 62.06633 -7.28091 279 ft 6 kts
2026-04-29 14:13 62.06652 -7.28033 279 ft 4 kts 93°
2026-04-29 14:13 62.06657 -7.27981 279 ft 3 kts 54°
2026-04-29 14:13 62.06678 -7.27954 279 ft 4 kts 24°
2026-04-29 14:14 62.06690 -7.27941 279 ft 0 kts 29°